DW1869 Weather Reports


Display with metric or nautical units.
time (UTC)temp
F
wind
direction
speed
MPH
gust
MPH
rain 1hr
in
rain 24hr
in
rain mn
in
humidity
%
barometer
mb
20260507234549 54 0 0.0 2.0 0.00 1.04 1.04 93 1012.1
20260507233050 54 0 0.0 1.0 0.00 1.04 1.04 93 1011.7
20260507231549 54 0 0.0 2.0 0.00 1.04 1.04 93 1011.7
20260507230048 54 217 0.0 2.0 0.00 1.04 1.04 93 1011.4
20260507224554 54 70 0.0 3.0 0.00 1.04 1.04 93 1011.0
20260507223048 54 0 0.0 2.0 0.00 1.04 1.04 93 1011.5
20260507221552 54 173 0.0 2.0 0.00 1.04 1.04 93 1011.4
20260507220052 54 24 0.0 2.0 0.00 1.04 1.04 93 1011.7
20260507214551 54 109 0.0 3.0 0.00 1.04 1.04 93 1011.3
20260507213048 54 73 0.0 2.0 0.00 1.04 1.04 93 1011.3
20260507211547 54 0 0.0 4.0 0.00 1.04 1.04 93 1011.2
20260507210045 54 355 0.0 3.0 0.00 1.04 1.04 94 1011.3
20260507204553 55 0 0.0 3.0 0.00 1.04 1.04 94 1010.8
20260507203051 55 0 1.0 3.0 0.00 1.04 1.04 94 1010.8
20260507201557 54 148 0.0 3.0 0.00 1.04 1.04 94 1010.8
20260507200049 54 40 0.0 3.0 0.00 1.04 1.04 94 1011.1
20260507194544 54 0 0.0 2.0 0.00 1.04 1.04 94 1011.0
20260507193051 54 42 0.0 3.0 0.00 1.04 1.04 94 1011.3
20260507191556 54 0 1.0 4.0 0.00 1.04 1.04 93 1011.2
20260507190055 55 0 1.0 4.0 0.00 1.04 1.04 93 1010.8
20260507184603 56 284 1.0 6.0 0.00 1.04 1.04 94 1010.4
20260507183055 56 0 0.0 3.0 0.00 1.04 1.04 94 1010.4
20260507181601 56 255 0.0 3.0 0.01 1.04 1.04 94 1010.7
20260507180057 56 88 0.0 3.0 0.02 1.04 1.04 94 1010.4
20260507174557 56 0 0.0 4.0 0.03 1.04 1.04 94 1011.3
20260507173048 56 0 0.0 3.0 0.04 1.04 1.04 94 1010.7
20260507171602 57 0 1.0 3.0 0.03 1.04 1.04 94 1010.2
20260507170055 58 0 0.0 4.0 0.03 1.03 1.03 94 1010.2
20260507164557 58 56 0.0 6.0 0.03 1.02 1.02 94 1010.0
20260507163059 59 63 0.0 4.0 0.06 1.01 1.01 93 1010.8
20260507161550 61 40 1.0 4.0 0.07 1.01 1.01 93 1011.1
20260507160047 66 176 0.0 3.0 0.07 1.00 1.00 94 1010.8
20260507154601 66 0 0.0 1.0 0.09 0.99 0.99 94 1010.4
20260507153100 65 0 0.0 1.0 0.09 0.95 0.95 94 1010.6
20260507151550 66 0 0.0 1.0 0.10 0.94 0.94 94 1010.6
20260507150049 66 0 0.0 1.0 0.10 0.93 0.93 94 1010.7
20260507144553 65 0 0.0 1.0 0.08 0.90 0.90 94 1010.6
20260507143050 65 0 0.0 2.0 0.05 0.86 0.86 94 1010.6
20260507141552 66 336 0.0 3.0 0.04 0.84 0.84 94 1010.9
20260507140049 66 330 0.0 2.0 0.03 0.83 0.83 94 1010.9
20260507134554 65 323 0.0 2.0 0.02 0.82 0.82 94 1011.2
20260507133052 65 0 0.0 2.0 0.02 0.81 0.81 94 1011.1
20260507131559 65 0 0.0 2.0 0.01 0.80 0.80 94 1010.8
20260507130105 65 0 0.0 0.0 0.01 0.80 0.80 94 1010.8
20260507124554 65 0 0.0 1.0 0.07 0.80 0.80 94 1011.0
20260507123051 65 0 0.0 0.0 0.12 0.79 0.79 94 1011.2
20260507121606 65 0 0.0 1.0 0.23 0.79 0.79 94 1011.0
20260507120055 65 0 0.0 1.0 0.49 0.79 0.79 94 1011.3
20260507114609 64 0 0.0 2.0 0.52 0.73 0.73 94 1011.6
20260507113051 64 0 0.0 1.0 0.54 0.67 0.67 94 1011.4
20260507111550 64 202 0.0 4.0 0.45 0.55 0.55 94 1011.4
20260507110052 64 0 0.0 1.0 0.20 0.30 0.30 94 1011.3
20260507104552 64 0 0.0 0.0 0.10 0.20 0.20 94 1011.2
20260507103051 64 0 0.0 0.0 0.03 0.13 0.13 94 1011.1
20260507101552 64 0 0.0 0.0 0.00 0.10 0.10 94 1011.0
20260507100051 64 0 0.0 0.0 0.00 0.10 0.10 94 1011.1
20260507094551 64 0 0.0 1.0 0.01 0.10 0.10 93 1011.0
20260507093055 64 0 0.0 1.0 0.03 0.10 0.10 93 1010.9
20260507091556 64 0 0.0 1.0 0.03 0.10 0.10 93 1011.0
20260507090055 64 0 0.0 1.0 0.04 0.10 0.10 93 1011.3
20260507084547 64 0 0.0 1.0 0.03 0.09 0.09 93 1011.2
20260507083053 64 0 0.0 3.0 0.01 0.07 0.07 93 1011.6
20260507081554 64 0 0.0 1.0 0.01 0.07 0.07 93 1011.5
20260507080051 64 0 0.0 1.0 0.00 0.06 0.06 93 1011.6
20260507074608 64 0 0.0 0.0 0.00 0.06 0.06 93 1011.8
20260507073053 64 0 0.0 1.0 0.00 0.06 0.06 93 1012.0
20260507071553 64 0 0.0 2.0 0.00 0.06 0.06 93 1012.0
20260507070054 64 320 0.0 2.0 0.00 0.06 0.06 93 1012.1
20260507064557 65 0 0.0 2.0 0.00 0.06 0.06 93 1012.5
20260507063051 65 0 0.0 1.0 0.01 0.06 0.06 93 1012.5
20260507061551 65 0 0.0 1.0 0.03 0.06 0.06 93 1012.3
20260507060056 65 0 0.0 1.0 0.03 0.06 0.06 93 1012.6
20260507054604 65 0 0.0 1.0 0.05 0.06 0.06 92 1012.6
20260507053058 65 0 0.0 1.0 0.05 0.05 0.05 92 1012.8
20260507051557 65 0 0.0 0.0 0.03 0.03 0.03 92 1013.1
20260507050057 66 0 0.0 4.0 0.03 0.03 0.03 92 1013.0
20260507044600 66 231 1.0 5.0 0.01 0.01 0.01 91 1013.0
20260507043050 66 0 0.0 1.0 0.00 0.00 0.00 92 1014.1
20260507041601 66 0 0.0 1.0 0.00 0.00 0.00 91 1014.3
20260507040051 66 0 0.0 1.0 0.00 0.00 0.00 91 1013.7
20260507034556 66 0 0.0 1.0 0.00 0.00 0.00 91 1013.1
20260507033056 66 0 0.0 0.0 0.00 0.00 0.00 91 1013.4
20260507031605 67 0 0.0 0.0 0.00 0.00 0.00 91 1013.3
20260507030057 67 0 0.0 0.0 0.00 0.00 0.00 90 1013.2
20260507024553 67 0 0.0 0.0 0.00 0.00 0.00 90 1012.9
20260507023103 67 0 0.0 0.0 0.00 0.00 0.00 89 1012.9
20260507021551 67 0 0.0 0.0 0.00 0.00 0.00 89 1012.4
20260507020050 67 0 0.0 0.0 0.00 0.00 0.00 89 1013.0
20260507014600 67 0 0.0 0.0 0.00 0.00 0.00 88 1013.1
20260507013047 67 0 0.0 0.0 0.00 0.00 0.00 88 1012.8
20260507011552 67 0 0.0 0.0 0.00 0.00 0.00 88 1013.1
20260507010049 68 0 0.0 0.0 0.00 0.00 0.00 87 1012.9
20260507004544 68 0 0.0 0.0 0.00 0.00 0.00 87 1012.7
20260507003051 68 0 0.0 0.0 0.00 0.00 0.00 86 1012.8
20260507001551 69 0 0.0 0.0 0.00 0.00 0.00 84 1012.9
20260507000051 70 0 0.0 0.0 0.00 0.00 0.00 83 1012.8